Location: ??????????
(54.8537°N, 38.8755°E)
Time: 00:49:23
(UTC+00:00)

Tiros 1 - Pass Details

Date: 17 September 2024
Orbit: 623 x 654 km, 48.4° (Epoch: 15 October)

Event Time Altitude Azimuth Distance (km) Brightness Sun altitude
Rises 12:19:10 0° 211° (SSW) 2,890 11.6 25.7°
Reaches altitude 10° 12:22:05 10° 192° (SSW) 1,987 10.5 25.4°
Maximum altitude 12:25:08 18° 150° (SSE) 1,538 9.3 25.0°
Drops below altitude 10° 12:28:13 10° 107° (ESE) 1,999 9.4 24.7°
Sets 12:31:09 0° 89° (E) 2,913 10.0 24.3°
